Washington County, Wisconsin, United States
Lat: 43.37N, Lon: 88.22W
Wx Zone: WIZ059
Local Info
Past Weather Observations for Today

NOTE: This archive is for the closest National Weather Service station to Washington County. Information may differ from the station used for current weather conditions.

Time Weather Temperature Dewpoint Humidity Pressure Winds Precip Visibility
17:50
Overcast
Light Rain
45°F / 7°C 32°F / 0°C 61% 29.77 in
(1008 mb)
SE 10.4 mph
(SE 17 kph)
- 10SM
17:30
Overcast
45°F / 7°C 30°F / -1°C 57% 29.77 in
(1008 mb)
ESE 9.2 mph
(ESE 15 kph)
- 10SM
17:10
Overcast
45°F / 7°C 30°F / -1°C 57% 29.77 in
(1008 mb)
ESE 9.2 mph
(ESE 15 kph)
- 10SM
16:50
Overcast
45°F / 7°C 30°F / -1°C 57% 29.77 in
(1008 mb)
SE 11.5 mph
(SE 19 kph)
- 10SM
16:30
Overcast
45°F / 7°C 30°F / -1°C 57% 29.77 in
(1008 mb)
ESE 10.4 mph
(ESE 17 kph)
- 10SM
16:10
Overcast
45°F / 7°C 30°F / -1°C 57% 29.77 in
(1008 mb)
ESE 11.5 mph
(ESE 19 kph)
- 10SM
15:50
Overcast
45°F / 7°C 30°F / -1°C 57% 29.8 in
(1009 mb)
ESE 12.7 mph
(ESE 20 kph)
- 10SM
15:30
Overcast
45°F / 7°C 32°F / 0°C 61% 29.8 in
(1009 mb)
ESE 13.8 mph
(ESE 22 kph)
- 10SM
15:10
Overcast
45°F / 7°C 32°F / 0°C 61% 29.83 in
(1010 mb)
ESE 11.5 mph
(ESE 19 kph)
- 10SM
14:50
Overcast
Drizzle
45°F / 7°C 32°F / 0°C 61% 29.83 in
(1010 mb)
ESE 11.5 mph
(ESE 19 kph)
0.01 in
(0.25 mm)
10SM
14:30
Overcast
Rain
45°F / 7°C 34°F / 1°C 66% 29.83 in
(1010 mb)
E 11.5 mph
(E 19 kph)
0.01 in
(0.25 mm)
10SM
14:10
Overcast
Light Rain
45°F / 7°C 34°F / 1°C 66% 29.86 in
(1011 mb)
ESE 10.4 mph
(ESE 17 kph)
- 10SM
13:50
Overcast
Light Rain
45°F / 7°C 32°F / 0°C 61% 29.89 in
(1012 mb)
ESE 9.2 mph
(ESE 15 kph)
- 10SM
13:30
Overcast
46°F / 8°C 32°F / 0°C 57% 29.86 in
(1011 mb)
SE 15 mph
(SE 24 kph)
- 10SM
13:10
Overcast
46°F / 8°C 32°F / 0°C 57% 29.86 in
(1011 mb)
ESE 15 mph
(ESE 24 kph)
- 10SM
12:50
Overcast
46°F / 8°C 32°F / 0°C 57% 29.89 in
(1012 mb)
ESE 12.7 mph
(ESE 20 kph)
- 10SM
12:30
Overcast
46°F / 8°C 34°F / 1°C 62% 29.89 in
(1012 mb)
ESE 10.4 mph
(ESE 17 kph)
- 10SM
12:10
Overcast
45°F / 7°C 32°F / 0°C 61% 29.89 in
(1012 mb)
SE 17.3 mph
(SE 28 kph)
- 10SM
11:50
Overcast
45°F / 7°C 32°F / 0°C 61% 29.89 in
(1012 mb)
ESE 16.1 mph
(ESE 26 kph)
- 10SM
11:30
Overcast
45°F / 7°C 34°F / 1°C 66% 29.92 in
(1013 mb)
SE 11.5 mph
(SE 19 kph)
- 10SM
11:10
Overcast
45°F / 7°C 34°F / 1°C 66% 29.92 in
(1013 mb)
SE 13.8 mph
(SE 22 kph)
- 10SM
10:50
Overcast
45°F / 7°C 34°F / 1°C 66% 29.95 in
(1014 mb)
SE 10.4 mph
(SE 17 kph)
- 10SM
10:30
Overcast
43°F / 6°C 34°F / 1°C 71% 29.95 in
(1014 mb)
ESE 15 mph
(ESE 24 kph)
- 10SM
10:10
Overcast
43°F / 6°C 34°F / 1°C 71% 29.98 in
(1015 mb)
ESE 6.9 mph
(ESE 11 kph)
- 10SM
09:50
Overcast
41°F / 5°C 34°F / 1°C 76% 29.98 in
(1015 mb)
ESE 10.4 mph
(ESE 17 kph)
- 10SM
09:30
Overcast
41°F / 5°C 32°F / 0°C 70% 29.98 in
(1015 mb)
E 8.1 mph
(E 13 kph)
- 10SM
09:10
Overcast
41°F / 5°C 34°F / 1°C 76% 30.01 in
(1016 mb)
E 8.1 mph
(E 13 kph)
- 10SM
08:50
Overcast
41°F / 5°C 34°F / 1°C 76% 30.01 in
(1016 mb)
E 6.9 mph
(E 11 kph)
- 10SM
08:30
Overcast
39°F / 4°C 32°F / 0°C 75% 30.01 in
(1016 mb)
E 6.9 mph
(E 11 kph)
- 10SM
08:10
Overcast
37°F / 3°C 34°F / 1°C 87% 30.01 in
(1016 mb)
E 6.9 mph
(E 11 kph)
- 10SM
07:50
Overcast
37°F / 3°C 32°F / 0°C 81% 30.01 in
(1016 mb)
E 8.1 mph
(E 13 kph)
- 10SM
07:30
Overcast
37°F / 3°C 32°F / 0°C 81% 30.01 in
(1016 mb)
E 6.9 mph
(E 11 kph)
- 10SM
07:10
Overcast
37°F / 3°C 32°F / 0°C 81% 30.01 in
(1016 mb)
E 6.9 mph
(E 11 kph)
- 10SM
06:50
Overcast
Rain
36°F / 2°C 32°F / 0°C 87% 30.01 in
(1016 mb)
E 10.4 mph
(E 17 kph)
- 10SM
06:30
Overcast
Light Rain
36°F / 2°C 32°F / 0°C 87% 30.04 in
(1017 mb)
E 8.1 mph
(E 13 kph)
- 10SM
06:10
Overcast
Light Rain
36°F / 2°C 32°F / 0°C 87% 30.04 in
(1017 mb)
E 4.6 mph
(E 7 kph)
- 10SM
05:50
Overcast
Rain
36°F / 2°C 32°F / 0°C 87% 30.04 in
(1017 mb)
E 4.6 mph
(E 7 kph)
0.05 in
(1.27 mm)
5SM
05:30
Overcast
Light Rain
36°F / 2°C 32°F / 0°C 87% 30.04 in
(1017 mb)
SE 4.6 mph
(SE 7 kph)
0.04 in
(1.02 mm)
10SM
05:10
Overcast
Rain
34°F / 1°C 32°F / 0°C 93% 30.04 in
(1017 mb)
E 3.5 mph
(E 6 kph)
0.02 in
(0.51 mm)
4SM
04:50
Overcast
Rain
34°F / 1°C 32°F / 0°C 93% 30.04 in
(1017 mb)
ENE 6.9 mph
(ENE 11 kph)
0.08 in
(2.03 mm)
5SM
04:30
Overcast
Rain
34°F / 1°C 30°F / -1°C 87% 30.04 in
(1017 mb)
E 8.1 mph
(E 13 kph)
0.05 in
(1.27 mm)
5SM
04:10
Overcast
Rain
36°F / 2°C 30°F / -1°C 81% 30.06 in
(1018 mb)
ESE 3.5 mph
(ESE 6 kph)
0.02 in
(0.51 mm)
5SM
03:50
Overcast
Rain
36°F / 2°C 27°F / -3°C 70% 30.06 in
(1018 mb)
E 3.5 mph
(E 6 kph)
0.01 in
(0.25 mm)
10SM
03:30
Overcast
36°F / 2°C 25°F / -4°C 65% 30.09 in
(1019 mb)
Calm - 10SM
03:10
Overcast
Light Rain
36°F / 2°C 25°F / -4°C 65% 30.09 in
(1019 mb)
NE 4.6 mph
(NE 7 kph)
- 10SM
02:50
Overcast
Rain
37°F / 3°C 18°F / -8°C 45% 30.09 in
(1019 mb)
Calm - 10SM
02:30
Overcast
37°F / 3°C 19°F / -7°C 48% 30.09 in
(1019 mb)
Calm - 10SM
02:10
Overcast
37°F / 3°C 18°F / -8°C 45% 30.12 in
(1020 mb)
SSE 3.5 mph
(SSE 6 kph)
- 10SM
01:50
Overcast
37°F / 3°C 18°F / -8°C 45% 30.09 in
(1019 mb)
Calm - 10SM
01:30
Overcast
37°F / 3°C 14°F / -10°C 38% 30.09 in
(1019 mb)
Calm - 10SM
01:10
Overcast
37°F / 3°C 18°F / -8°C 45% 30.09 in
(1019 mb)
Calm - 10SM
00:50
Overcast
37°F / 3°C 14°F / -10°C 38% 30.09 in
(1019 mb)
Calm - 10SM
00:30
Overcast
37°F / 3°C 16°F / -9°C 41% 30.09 in
(1019 mb)
Calm - 10SM
00:10
Overcast
37°F / 3°C 14°F / -10°C 38% 30.09 in
(1019 mb)
Calm - 10SM
Time Weather Temperature Dewpoint Humidity Pressure Winds Precip Visibility


Weather for websites

WeatherForYou.com, LLC is not responsible for any damages or problems caused by this service. Current weather conditions are obtained from the closest station including government and personal stations which may have varying degrees of accuracy. Weather forecasts are derived from the NOAA NDFD. Like all things, this site belongs to Jesus Christ... He just trusts me to maintain it. If you have any questions or comments email webmaster@weatherforyou.com

Copyright © 2014, WeatherForYou.com LLC. All rights reserved.